Stations météo

réclame
Mon MeteoGroup
Pamplona/Noain, Espagne (8085): Température de l'air & dewpoint: 17.05.2018 19:00:00 - 23.05.2018 19:00:00 (CEST)Pamplona/Noain, Espagne (8085): Vitesse du vent: 17.05.2018 19:00:00 - 23.05.2018 19:00:00 (CEST)Pamplona/Noain, Espagne (8085): Direction du vent: 17.05.2018 19:00:00 - 23.05.2018 19:00:00 (CEST)Pamplona/Noain, Espagne (8085): reduced air pressure: 17.05.2018 19:00:00 - 23.05.2018 19:00:00 (CEST)Pamplona/Noain, Espagne (8085): visibility: 17.05.2018 19:00:00 - 23.05.2018 19:00:00 (CEST)
Date & Time tt [°C] td [°C] ff [km/h] ff [knt] dd ppp [hPa] vv [km]
23.05.2018 19:00:00 - - - - - - -
23.05.2018 18:00:00 17,8 14,8 8 4 WNW 1016,3 10
23.05.2018 17:00:00 20,5 12,6 5 3 W 1015,5 25
23.05.2018 16:00:00 20,4 12,5 5 3 NNE 1016,0 24
23.05.2018 15:00:00 20,1 13,3 8 4 NNW 1017,0 17
23.05.2018 14:00:00 17,9 12,8 4 2 W 1017,9 20
23.05.2018 13:00:00 18,3 12,0 8 4 W 1017,7 22
23.05.2018 12:00:00 18,1 11,6 4 2 W 1017,5 22
23.05.2018 11:00:00 16,3 11,4 4 2 SW 1017,8 9
23.05.2018 10:00:00 15,0 10,9 2 1 - 1018,1 9
23.05.2018 09:00:00 12,8 10,2 2 1 E 1018,7 10
23.05.2018 08:00:00 10,2 10,2 0 0 N 1018,9 11
23.05.2018 07:00:00 8,3 8,3 0 0 N 1018,8 10
23.05.2018 06:00:00 8,9 8,9 2 1 SSE 1018,4 11
23.05.2018 05:00:00 8,8 8,2 2 1 SE 1018,5 10
23.05.2018 04:00:00 9,2 7,6 4 2 ESE 1018,6 10
23.05.2018 03:00:00 10,1 8,2 8 4 SSE 1018,7 13
23.05.2018 02:00:00 10,9 8,5 8 4 SW 1018,4 27
23.05.2018 01:00:00 12,1 8,9 8 4 NW 1017,8 18
23.05.2018 00:00:00 13,3 9,9 9 5 NNW 1017,3 20
22.05.2018 23:00:00 14,1 9,9 9 5 NW 1016,9 10
22.05.2018 22:00:00 15,8 10,0 11 6 N 1015,9 10
22.05.2018 21:00:00 18,0 9,9 16 9 N 1014,8 10
22.05.2018 20:00:00 20,0 9,3 21 11 N 1014,1 30
22.05.2018 19:00:00 21,4 9,4 18 10 NNE 1013,3 10
22.05.2018 18:00:00 22,8 9,6 21 11 NNW 1012,7 30
22.05.2018 17:00:00 23,0 9,0 18 10 NNW 1012,5 10
22.05.2018 16:00:00 23,7 6,4 13 7 NNW 1012,7 30
22.05.2018 15:00:00 23,4 9,1 11 6 NNW 1012,9 30
22.05.2018 14:00:00 22,9 10,2 18 10 NW 1013,2 25
22.05.2018 13:00:00 21,1 12,6 11 6 NW 1013,7 10
22.05.2018 12:00:00 18,1 13,5 4 2 SW 1014,5 10
22.05.2018 11:00:00 14,2 14,2 4 2 - 1015,4 5
22.05.2018 10:00:00 11,8 11,8 0 0 N 1016,0 1,4
22.05.2018 09:00:00 10,5 10,5 4 2 - 1016,0 1,4
22.05.2018 08:00:00 9,3 9,3 2 1 - 1015,9 0,4
22.05.2018 07:00:00 7,3 7,3 2 1 - 1015,7 5
22.05.2018 06:00:00 8,0 8,0 0 0 N 1015,1 3,4
22.05.2018 05:00:00 8,2 8,2 4 2 SSE 1015,0 7
22.05.2018 04:00:00 8,9 8,9 2 1 SSE 1014,8 7
22.05.2018 03:00:00 9,3 9,3 2 1 SE 1014,8 7
22.05.2018 02:00:00 10,0 10,0 2 1 NE 1014,9 26
22.05.2018 01:00:00 10,8 10,8 4 2 E 1014,6 9
22.05.2018 00:00:00 11,6 11,6 4 2 ENE 1014,2 12
21.05.2018 23:00:00 12,5 12,5 4 2 ENE 1013,8 13
21.05.2018 22:00:00 13,9 12,5 8 4 WNW 1012,4 17
21.05.2018 21:00:00 15,9 13,2 2 1 N 1011,4 30
21.05.2018 20:00:00 16,1 13,8 8 4 NW 1011,5 10
21.05.2018 19:00:00 15,6 13,0 8 4 ESE 1011,6 10
21.05.2018 18:00:00 14,6 12,6 15 8 ESE 1011,5 10
21.05.2018 17:00:00 17,3 13,2 13 7 N 1010,2 20
21.05.2018 16:00:00 17,1 13,2 11 6 SSE 1010,1 30
21.05.2018 15:00:00 17,6 10,7 16 9 ESE 1009,8 30
21.05.2018 14:00:00 20,1 13,3 5 3 NNE 1009,7 30
21.05.2018 13:00:00 21,4 12,6 9 5 N 1010,2 30
21.05.2018 12:00:00 19,1 13,1 8 4 NNW 1011,1 24
21.05.2018 11:00:00 18,4 12,0 4 2 NNW 1011,5 25
21.05.2018 10:00:00 15,8 11,3 2 1 N 1012,2 30
21.05.2018 09:00:00 14,3 11,9 0 0 N 1012,4 10
21.05.2018 08:00:00 12,2 12,2 0 0 N 1012,9 15
21.05.2018 07:00:00 10,6 10,6 0 0 N 1013,1 16
21.05.2018 06:00:00 9,8 9,8 4 2 N 1013,2 17
21.05.2018 05:00:00 9,8 9,8 0 0 N 1013,3 10
21.05.2018 04:00:00 10,2 10,2 0 0 N 1013,6 10
21.05.2018 03:00:00 11,0 10,4 4 2 WNW 1013,8 18
21.05.2018 02:00:00 12,4 10,8 5 3 NNW 1013,9 20
21.05.2018 01:00:00 14,1 11,2 4 2 SSE 1013,9 30
21.05.2018 00:00:00 14,6 11,7 0 0 N 1013,9 10
20.05.2018 23:00:00 15,5 12,1 8 4 NE 1013,8 30
20.05.2018 22:00:00 16,1 11,3 4 2 - 1013,4 10
20.05.2018 21:00:00 17,3 11,8 9 5 SE 1012,5 30
20.05.2018 20:00:00 17,8 12,0 11 6 NE 1012,1 10
20.05.2018 19:00:00 16,6 12,2 15 8 E 1012,5 15
20.05.2018 18:00:00 19,4 12,2 16 9 NNE 1011,6 12
20.05.2018 17:00:00 23,1 11,4 16 9 NNE 1010,9 10
20.05.2018 16:00:00 22,2 10,7 15 8 NNE 1011,8 19
20.05.2018 15:00:00 23,3 9,8 15 8 N 1012,3 27
20.05.2018 14:00:00 22,8 9,1 9 5 NW 1013,2 30
20.05.2018 13:00:00 21,2 9,5 2 1 NNE 1014,4 10
20.05.2018 12:00:00 19,5 9,4 4 2 N 1015,5 27
20.05.2018 11:00:00 16,2 8,4 4 2 W 1016,7 30
20.05.2018 10:00:00 14,9 7,6 4 2 NNE 1017,4 30
20.05.2018 09:00:00 11,6 7,9 2 1 - 1018,1 10
20.05.2018 08:00:00 9,9 7,1 0 0 N 1018,2 20
20.05.2018 07:00:00 8,6 7,1 0 0 N 1018,4 10
20.05.2018 06:00:00 7,6 5,7 4 2 E 1018,6 19
20.05.2018 05:00:00 7,5 5,6 5 3 E 1018,7 18
20.05.2018 04:00:00 9,0 6,6 5 3 E 1018,5 10
20.05.2018 03:00:00 9,1 6,3 0 0 N 1019,1 10
20.05.2018 02:00:00 10,1 6,5 2 1 - 1019,4 10
20.05.2018 01:00:00 11,1 6,8 5 3 NW 1019,3 24
20.05.2018 00:00:00 12,1 7,6 11 6 NNW 1019,0 23
19.05.2018 23:00:00 13,5 8,3 13 7 NNW 1018,5 20
19.05.2018 22:00:00 15,1 7,6 15 8 N 1017,5 30
19.05.2018 21:00:00 17,1 8,0 22 12 N 1016,7 30
19.05.2018 20:00:00 18,7 7,5 26 14 N 1016,0 30
19.05.2018 19:00:00 19,8 7,9 24 13 N 1015,8 30
19.05.2018 18:00:00 20,8 8,4 24 13 N 1015,7 22
19.05.2018 17:00:00 20,7 8,3 28 15 NW 1015,8 10
19.05.2018 16:00:00 20,1 10,2 31 17 NNW 1016,0 10
19.05.2018 15:00:00 22,9 9,8 28 15 NW 1015,7 30
19.05.2018 14:00:00 22,8 10,0 28 15 NW 1016,2 10
19.05.2018 13:00:00 21,9 10,5 24 13 NW 1016,2 10
19.05.2018 12:00:00 21,2 11,5 5 3 NW 1016,6 10
19.05.2018 11:00:00 18,5 12,3 4 2 WNW 1017,8 15
19.05.2018 10:00:00 15,6 11,3 4 2 NNE 1018,7 10
19.05.2018 09:00:00 13,4 10,2 2 1 ENE 1019,2 8
19.05.2018 08:00:00 9,8 9,8 0 0 N 1019,7 6
19.05.2018 07:00:00 8,2 8,2 0 0 N 1019,8 6
19.05.2018 06:00:00 8,5 8,5 4 2 SE 1019,4 4,4
19.05.2018 05:00:00 8,7 8,7 4 2 SSE 1019,1 6
19.05.2018 04:00:00 9,9 9,9 4 2 SSE 1018,7 6
19.05.2018 03:00:00 10,4 9,2 0 0 N 1019,2 6
19.05.2018 02:00:00 12,1 10,2 8 4 WNW 1019,2 8
19.05.2018 01:00:00 12,5 10,0 9 5 WNW 1019,4 9
19.05.2018 00:00:00 13,5 10,5 11 6 WNW 1019,1 10
18.05.2018 23:00:00 14,2 10,8 13 7 NNW 1018,9 15
18.05.2018 22:00:00 15,3 10,9 8 4 NNW 1017,8 10
18.05.2018 21:00:00 17,2 11,0 15 8 NNW 1016,8 30
18.05.2018 20:00:00 18,1 10,0 21 11 NNE 1016,3 30
18.05.2018 19:00:00 18,7 10,0 16 9 N 1016,4 10
18.05.2018 18:00:00 19,9 11,0 15 8 NNE 1015,9 30
18.05.2018 17:00:00 21,7 11,3 31 17 NNW 1015,0 30
18.05.2018 16:00:00 22,5 12,0 29 16 NW 1014,9 30
18.05.2018 15:00:00 22,3 12,0 24 13 NW 1015,3 27
18.05.2018 14:00:00 21,8 12,7 21 11 NW 1016,2 30
18.05.2018 13:00:00 20,9 11,9 15 8 NW 1017,0 19
18.05.2018 12:00:00 19,0 11,4 8 4 WNW 1017,5 10
18.05.2018 11:00:00 18,0 11,6 8 4 W 1017,8 15
18.05.2018 10:00:00 16,1 11,3 8 4 NW 1018,3 14
18.05.2018 09:00:00 13,0 11,7 0 0 N 1018,8 9
18.05.2018 08:00:00 11,2 11,2 0 0 N 1018,9 5
18.05.2018 07:00:00 10,5 10,5 0 0 N 1018,6 5
18.05.2018 06:00:00 9,6 9,6 5 3 SE 1018,4 6
18.05.2018 05:00:00 8,8 8,8 0 0 N 1018,6 4,4
18.05.2018 04:00:00 8,6 8,5 4 2 ESE 1018,7 4,8
18.05.2018 03:00:00 9,8 9,5 5 3 W 1018,7 7
18.05.2018 02:00:00 10,0 8,4 0 0 N 1018,9 7
18.05.2018 01:00:00 11,3 9,2 9 5 NW 1018,8 9
18.05.2018 00:00:00 12,0 9,6 15 8 NW 1018,2 9
17.05.2018 23:00:00 12,5 9,7 15 8 NW 1017,9 10
17.05.2018 22:00:00 12,9 9,5 15 8 WNW 1017,1 9
17.05.2018 21:00:00 14,2 9,8 18 10 NW 1016,3 10
17.05.2018 20:00:00 16,1 10,0 24 13 NW 1015,4 10
17.05.2018 19:00:00 16,5 10,2 26 14 NW 1015,5 16

tt = Température de l'air
td = dewpoint
ff = Vitesse du vent
dd = Direction du vent
ppp = reduced air pressure
vv = visibility

stations d'obs. à proximité